Time,TemperatureF,DewpointF,PressureIn,WindDirection,WindDirectionDegrees,WindSpeedMPH,WindSpeedGustMPH,Humidity,HourlyPrecipIn,Conditions,Clouds,dailyrainin,SoftwareType,DateUTC
2013-03-19 00:00:00,49.6,48.0,30.06,East,89,3.1,8.7,94,-99.99,,,0.00,VWS V14.01,2013-03-19 04:00:00,
2013-03-19 00:30:00,49.6,48.0,30.09,East,95,3.1,7.4,94,-99.99,,,0.00,VWS V14.01,2013-03-19 04:30:00,
2013-03-19 01:00:00,49.5,47.8,30.09,SW,216,0.0,5.8,94,-99.99,,,0.00,VWS V14.01,2013-03-19 05:00:00,
2013-03-19 01:30:00,49.1,47.5,30.09,SSW,205,3.6,6.3,94,-99.99,,,0.00,VWS V14.01,2013-03-19 05:30:00,
2013-03-19 02:00:00,48.9,47.3,30.09,SSW,196,4.0,6.7,94,-99.99,,,0.00,VWS V14.01,2013-03-19 06:00:00,
2013-03-19 02:30:00,48.9,47.3,30.09,SSW,195,5.8,8.3,94,-99.99,,,0.00,VWS V14.01,2013-03-19 06:30:00,
2013-03-19 03:00:00,48.6,46.9,30.09,South,188,4.9,13.0,94,-99.99,,,0.00,VWS V14.01,2013-03-19 07:00:00,
2013-03-19 03:30:00,47.8,46.2,30.12,South,175,6.7,11.0,94,-99.99,,,0.00,VWS V14.01,2013-03-19 07:30:00,
2013-03-19 04:00:00,46.2,44.6,30.12,SSW,201,6.3,11.0,94,-99.99,,,0.00,VWS V14.01,2013-03-19 08:00:00,
2013-03-19 04:30:00,44.4,42.8,30.15,South,180,9.2,11.6,94,-99.99,,,0.00,VWS V14.01,2013-03-19 08:30:00,
2013-03-19 05:00:00,42.4,41.1,30.18,West,269,0.0,11.0,95,-99.99,,,0.00,VWS V14.01,2013-03-19 09:00:00,
2013-03-19 05:30:00,40.5,39.1,30.18,SSW,194,3.1,8.3,95,-99.99,,,0.00,VWS V14.01,2013-03-19 09:30:00,
2013-03-19 06:00:00,39.0,37.4,30.21,NE,35,0.0,8.7,94,-99.99,,,0.00,VWS V14.01,2013-03-19 10:00:00,
2013-03-19 06:30:00,38.1,36.3,30.21,ENE,60,0.0,8.3,93,-99.99,,,0.00,VWS V14.01,2013-03-19 10:30:00,
2013-03-19 07:00:00,37.2,34.8,30.21,ENE,75,3.6,7.4,91,-99.99,,,0.00,VWS V14.01,2013-03-19 11:00:00,
2013-03-19 07:30:00,36.7,33.2,30.21,East,83,0.0,8.3,87,-99.99,,,0.00,VWS V14.01,2013-03-19 11:30:00,
2013-03-19 08:00:00,36.3,32.2,30.21,East,87,0.0,5.8,85,-99.99,,,0.00,VWS V14.01,2013-03-19 12:00:00,
2013-03-19 08:30:00,36.1,31.5,30.21,NE,55,0.0,5.4,83,-99.99,,,0.00,VWS V14.01,2013-03-19 12:30:00,
2013-03-19 09:00:00,36.9,31.6,30.21,NE,43,4.9,6.3,81,-99.99,,,0.00,VWS V14.01,2013-03-19 13:00:00,
2013-03-19 09:30:00,37.9,31.7,30.21,NNE,32,0.0,6.7,78,-99.99,,,0.00,VWS V14.01,2013-03-19 13:30:00,
2013-03-19 10:00:00,39.2,30.2,30.21,ESE,117,3.1,9.2,70,-99.99,,,0.00,VWS V14.01,2013-03-19 14:00:00,
2013-03-19 10:30:00,40.3,28.3,30.24,SW,231,0.0,7.8,62,-99.99,,,0.00,VWS V14.01,2013-03-19 14:30:00,
2013-03-19 11:00:00,41.5,29.1,30.24,NNE,29,0.0,7.8,61,-99.99,,,0.00,VWS V14.01,2013-03-19 15:00:00,
2013-03-19 12:30:00,47.3,26.0,30.24,SSW,210,3.6,10.1,43,-99.99,,,0.00,VWS V14.01,2013-03-19 16:30:00,
2013-03-19 13:00:00,47.8,24.1,30.24,SSW,203,3.6,10.5,39,-99.99,,,0.00,VWS V14.01,2013-03-19 17:00:00,
2013-03-19 13:30:00,50.4,25.1,30.24,SW,236,0.0,12.5,37,-99.99,,,0.00,VWS V14.01,2013-03-19 17:30:00,
2013-03-19 14:00:00,53.2,27.7,30.24,ENE,74,0.0,11.2,37,-99.99,,,0.00,VWS V14.01,2013-03-19 18:00:00,
2013-03-19 14:30:00,55.6,27.0,30.24,NE,53,3.1,10.1,33,-99.99,,,0.00,VWS V14.01,2013-03-19 18:30:00,
2013-03-19 15:00:00,56.1,17.8,30.24,SSW,207,3.6,12.1,22,-99.99,,,0.00,VWS V14.01,2013-03-19 19:00:00,
2013-03-19 15:30:00,57.9,13.4,30.24,SSE,166,8.7,11.6,17,-99.99,,,0.00,VWS V14.01,2013-03-19 19:30:00,
2013-03-19 16:00:00,57.6,5.3,30.24,SSW,210,3.6,11.6,12,-99.99,,,0.00,VWS V14.01,2013-03-19 20:00:00,
2013-03-19 16:30:00,60.4,3.6,30.24,SSE,167,6.3,11.0,10,-99.99,,,0.00,VWS V14.01,2013-03-19 20:30:00,
2013-03-19 17:00:00,59.2,2.7,30.24,South,176,8.7,13.4,10,-99.99,,,0.00,VWS V14.01,2013-03-19 21:00:00,
2013-03-19 17:30:00,56.5,0.6,30.24,South,173,9.2,16.3,10,-99.99,,,0.00,VWS V14.01,2013-03-19 21:30:00,
2013-03-19 18:00:00,55.4,-0.3,30.24,South,179,5.4,14.8,10,-99.99,,,0.00,VWS V14.01,2013-03-19 22:00:00,
2013-03-19 18:30:00,53.1,-2.1,30.24,NNE,12,0.0,15.4,10,-99.99,,,0.00,VWS V14.01,2013-03-19 22:30:00,
2013-03-19 19:00:00,51.3,-3.5,30.27,NNE,24,0.0,9.6,10,-99.99,,,0.00,VWS V14.01,2013-03-19 23:00:00,
2013-03-19 19:30:00,48.9,-5.3,30.27,SW,218,0.0,7.8,10,-99.99,,,0.00,VWS V14.01,2013-03-19 23:30:00,
2013-03-19 20:00:00,47.1,-2.9,30.27,ENE,64,0.0,7.4,12,-99.99,,,0.00,VWS V14.01,2013-03-20 00:00:00,
2013-03-19 20:30:00,45.5,-4.2,30.27,NNE,32,0.0,5.8,12,-99.99,,,0.00,VWS V14.01,2013-03-20 00:30:00,
2013-03-19 21:00:00,43.9,-0.8,30.27,NE,42,0.0,5.4,15,-99.99,,,0.00,VWS V14.01,2013-03-20 01:00:00,
2013-03-19 21:30:00,43.0,-4.5,30.27,NE,41,0.0,5.4,13,-99.99,,,0.00,VWS V14.01,2013-03-20 01:30:00,
2013-03-19 22:00:00,42.1,-5.2,30.27,NE,41,0.0,6.3,13,-99.99,,,0.00,VWS V14.01,2013-03-20 02:00:00,
2013-03-19 22:30:00,41.0,6.1,30.27,ENE,76,0.0,5.4,23,-99.99,,,0.00,VWS V14.01,2013-03-20 02:30:00,
2013-03-19 23:00:00,40.6,-2.0,30.30,WSW,248,4.5,5.4,16,-99.99,,,0.00,VWS V14.01,2013-03-20 03:00:00,
2013-03-19 23:30:00,40.3,5.4,30.30,ENE,71,0.0,7.8,23,-99.99,,,0.00,VWS V14.01,2013-03-20 03:30:00,